星链-2166 (STARLINK-2166 )

导读

STARLINK-2166是美国SpaceX公司星链(Starlink)项目的卫星,于2021年5月15日发射入轨,属于星链低轨互联网星座的组成部分。它运行在近地轨道,依托星链星座架构,为全球提供高速低延迟的宽带互联网服务,重点覆盖地面网络难以抵达的偏远区域、海洋和空域,填补数字鸿沟,也在应急通信等领域发挥作用,是星链大规模组网部署中的一员。

基本信息
目录编号:
48558
目录名称:
STARLINK-2166
国际标识:
2021-041F
轨道中心:
EARTH
卫星名称:
星链-2166
卫星全名:
星链-2166 (STARLINK-2166 )
卫星状态:
在轨 (已飞行1945 天)
发射日期:
2021-05-15 UTC
国别 :
美国 (US)
星等 :
--
该卫星已列入 空间交会检测服务 Space Conjunction Data Service (SCDS) ,当前飞行风险评估等级: 无高风险
轨道信息
数据来源 国际轨道数据
星历时间: 2026-09-11T14:53:42+0800
6小时前
查看轨道信息
半长轴: 6848.936km
偏心率: 0.000119
轨道倾角: 53.159°
近地点辐角 87.370°
升交点赤经 343.118°
平近点角 272.744°
近地点: 469.983km
远地点: 471.615km
周期: 94.014分钟
每日圈数: 15.316804
详细信息
固有亮度:
5
最大亮度:
2.5
卫星平台:
Starlink V1.0
覆盖范围:
全球
运营商:
太空探索技术公司
运营商所在国:
美国
制造商(研发单位):
太空探索技术公司
制造商所在国:
美国
使用方式:
暂无
卫星简介
星链(Starlink)计划是由太空探索技术公司(SpaceX)提出的一个巨型低轨卫星互联网星座项目,计划在2019年至2024年间在太空搭建由约1.2万颗卫星组成的“星链”网络,其中1584颗将部署在地球上空550千米处的近地轨道,并从2020年开始工作。该卫星仍在工作。
2D轨道图
3D轨道图
轨道高度分析图
轨道倾角分析图
轨道综合分析图
查看轨道综合分析图
交会数据列表
事件ID 空间交会对象 最接近时刻(TCA) 交会距离 交会风险概率(CRP) 交会风险指数(CRI) 操作
CDM_260913-140304-855806-445421
2026-09-13T
14:03:00+0000
1.354 km
极远距离
3.740269E-6 低风险 0.46
CDM_260913-122904-855806-445421
2026-09-13T
12:29:02+0000
1.946 km
极远距离
1.31975E-6 低风险 0.37
与全量物体交会距离演化趋势
与全量物体交会风险概率演化趋势